Regional Weather Roundup
Issued by NWS

Home | Current Version | Previous Version | Text Only | Print | Product List | Glossary Off
Versions: 1 2 3 4 5 6 7 8 9 10 11 12 13 14 15 16 17 18 19 20 21 22 23 24 25 26 27 28 29 30 31 32 33 34 35 36 37 38 39 40 41 42 43 44 45 46 47 48 49 50

000
ASUS43 KDTX 270610
RWRMI
MICHIGAN HOURLY REGIONAL WEATHER ROUNDUP
NATIONAL WEATHER SERVICE DETROIT/PONTIAC MI
ISSUED BY NATIONAL WEATHER SERVICE GRAND RAPIDS MI
100 AM EST MON FEB 27 2017

NOTE: "FAIR" INDICATES FEW OR NO CLOUDS BELOW 12,000 FEET WITH NO
SIGNIFICANT WEATHER AND/OR OBSTRUCTION TO VISIBILITY.

MIZ047>049-052>055-059>063-066>070-074>076-081>083-270700-
SOUTHEAST LOWER MICHIGAN

CITY           SKY/WX    TMP DP  RH WIND       PRES   REMARKS
ADRIAN         CLEAR     31  23  72 SW7       30.11R WCI  24
6HR MIN TEMP:  31; 6HR MAX TEMP:  38;

ALMA           PTCLDY    36  25  65 S9        30.00R WCI  29
ANN ARBOR      MOCLDY    35  22  58 S10       30.08R WCI  27
BAD AXE        CLOUDY    36  23  59 SW10      29.99R WCI  29
6HR MIN TEMP:  35; 6HR MAX TEMP:  37;

DETROIT CITY   CLOUDY    38  20  48 SW12      30.08R WCI  30
6HR MIN TEMP:  38; 6HR MAX TEMP:  40;

DETROIT        PTCLDY    37  21  52 SW16      30.10R WCI  28
6HR MIN TEMP:  37; 6HR MAX TEMP:  40;

FLINT          CLOUDY    39  22  50 SW13      30.03R WCI  31
6HR MIN TEMP:  37; 6HR MAX TEMP:  40;

GROSSE ILE     PTCLDY    37  22  54 SW9G18    30.09S WCI  30
6HR MIN TEMP:  37; 6HR MAX TEMP:  40;

HILLSDALE      CLEAR     34  23  64 SW8       30.07R WCI  27
HOWELL         CLEAR     37  20  50 SW12G20   30.04R WCI  30
6HR MIN TEMP:  37; 6HR MAX TEMP:  38;


CITY           SKY/WX    TMP DP  RH WIND       PRES   REMARKS
JACKSON        PTCLDY    38  21  50 SW15      30.06R WCI  29
6HR MIN TEMP:  37; 6HR MAX TEMP:  40;

LANSING        MOCLDY    38  21  50 SW14      30.04R WCI  30
6HR MIN TEMP:  35; 6HR MAX TEMP:  39;

MASON          PTCLDY    38  24  58 SW12G20   30.04R WCI  30
MONROE         CLEAR     38  23  55 SW12G18   30.10S WCI  30
MT. CLEMENS    PTCLDY    38  21  49 SW15G24   30.05R WCI  29
6HR MIN TEMP:  38; 6HR MAX TEMP:  40;

PONTIAC        PTCLDY    37  19  48 SW10      30.03R WCI  30
6HR MIN TEMP:  37; 6HR MAX TEMP:  39;

PORT HOPE        N/A     36  24  62 SW8       29.96R WCI  30
6HR MIN TEMP:  36; 6HR MAX TEMP:  38;

PORT HURON     PTCLDY    39  21  48 SW8G17    30.05R WCI  34
TRI CITIES     PTCLDY    37  26  64 SW15      29.99R WCI  28
6HR MIN TEMP:  34; 6HR MAX TEMP:  37;

YPSILANTI      MOCLDY    36  24  62 SW14      30.09R WCI  27
6HR MIN TEMP:  36; 6HR MAX TEMP:  40;

$$
MIZ043>046-050>051-056>058-064>065-071>073-077>080-270700-
SOUTHWEST LOWER MICHIGAN

CITY           SKY/WX    TMP DP  RH WIND       PRES   REMARKS
BATTLE CREEK   CLEAR     36  24  62 SW14      30.06R WCI  27
6HR MIN TEMP:  36; 6HR MAX TEMP:  41;

BENTON HARBOR  CLEAR     39  24  55 SW13G23   30.07R WCI  31
6HR MIN TEMP:  39; 6HR MAX TEMP:  44;

BIG RAPIDS     CLEAR     33  26  76 W12       29.97R WCI  25
6HR MIN TEMP:  33; 6HR MAX TEMP:  36;

COLDWATER      CLEAR     36  21  55 SW10G16   30.09R WCI  28
6HR MIN TEMP:  36; 6HR MAX TEMP:  40;

HOLLAND        CLEAR     39  30  70 SW20G28   30.04R WCI  29
6HR MIN TEMP:  38; 6HR MAX TEMP:  41;

GRAND RAPIDS   PTCLDY    39  25  57 SW15      30.02R WCI  31
6HR MIN TEMP:  38; 6HR MAX TEMP:  40; 6HR PCP: TRACE;

KALAMAZOO      CLEAR     38  22  52 SW12      30.07R WCI  30
6HR MIN TEMP:  37; 6HR MAX TEMP:  42;

MARSHALL       CLEAR     37  22  55 SW14G20   30.06R WCI  28
6HR MIN TEMP:  37; 6HR MAX TEMP:  41;

MOUNT PLEASANT PTCLDY    32  25  76 CALM      29.98R
6HR MIN TEMP:  32; 6HR MAX TEMP:  37;

MUSKEGON       MOCLDY    40  31  70 W13       30.02R WCI  32
6HR MIN TEMP:  37; 6HR MAX TEMP:  42;

STURGIS        CLEAR     32  24  70 SW6       30.09R WCI  27
6HR MIN TEMP:  32; 6HR MAX TEMP:  40;

$$
MIZ016>042-270700-
NORTHERN LOWER MICHIGAN

CITY           SKY/WX    TMP DP  RH WIND       PRES   REMARKS
ALPENA         FLURRIES  31  30  96 NW6       29.94R WCI  25
6HR MIN TEMP:  31; 6HR MAX TEMP:  36; 6HR PCP:  0.01;

BEAVER ISLAND  CLEAR     24  13  63 NW12G18   29.96R WCI  13
6HR MIN TEMP:  24; 6HR MAX TEMP:  35;

BELLAIRE       CLOUDY    30  21  70 N6        29.98R WCI  24
6HR MIN TEMP:  30; 6HR MAX TEMP:  36;

CADILLAC       MOCLDY    28  24  86 SW6       29.93R WCI  21
CHARLEVOIX     CLOUDY    28  17  62 NW14G22   30.00R WCI  17
6HR MIN TEMP:  28; 6HR MAX TEMP:  36;

GAYLORD        MOCLDY    28  18  66 VRB7      29.92R WCI  21
6HR MIN TEMP:  28; 6HR MAX TEMP:  34;

HOUGHTON LAKE  CLEAR     31  23  72 W7        29.93R WCI  24
6HR MIN TEMP:  31; 6HR MAX TEMP:  34;

MANISTEE       PTCLDY    35  23  61 W13       29.97R WCI  26
OSCODA         CLEAR     29  22  75 SW7       29.94R WCI  22
6HR MIN TEMP:  29; 6HR MAX TEMP:  36;

PELLSTON       CLOUDY    26  15  63 NW16G24   29.96R WCI  14
6HR MIN TEMP:  26; 6HR MAX TEMP:  36; 6HR PCP: TRACE;

TRAVERSE CITY  MOCLDY    32  23  69 N7        29.96R WCI  26
6HR MIN TEMP:  32; 6HR MAX TEMP:  38;

LUDINGTON      CLEAR     36  28  74 W8        29.99R WCI  29
6HR MIN TEMP:  35; 6HR MAX TEMP:  37;

$$
MIZ007>008-015-270700-
EASTERN UPPER MICHIGAN

CITY           SKY/WX    TMP DP  RH WIND       PRES   REMARKS
KINROSS        CLEAR     18  13  80 W9        29.92R WCI   7
6HR MIN TEMP:  18; 6HR MAX TEMP:  31; 6HR PCP: TRACE;

MACKINAC ISLAN MOCLDY    23  14  68 NW9       29.94R WCI  13
6HR MIN TEMP:  23; 6HR MAX TEMP:  33;

NEWBERRY       FLURRIES  18  11  76 W7        29.93R WCI   9
6HR MIN TEMP:  18; 6HR MAX TEMP:  29;

S. S. MARIE    FLURRIES  24  15  68 W14G21    29.90R WCI  12
6HR MIN TEMP:  24; 6HR MAX TEMP:  32; 6HR PCP:  0.01;

$$
MIZ004>006-011>014-085-270700-
CENTRAL UPPER MICHIGAN

CITY           SKY/WX    TMP DP  RH WIND       PRES   REMARKS
MANISTIQUE     CLEAR     15  10  78 W7        29.97R WCI   6
6HR MIN TEMP:  15; 6HR MAX TEMP:  30;

ESCANABA       CLEAR     19  12  74 W3        29.99R
6HR MIN TEMP:  19; 6HR MAX TEMP:  31; 6HR PCP: TRACE;

MENOMINEE      CLOUDY    26  15  63 N9        30.01R WCI  17
6HR MIN TEMP:  26; 6HR MAX TEMP:  36; 6HR PCP: TRACE;

SAWYER-GWINN   CLEAR     11   7  84 CALM      29.94R
6HR MIN TEMP:   9; 6HR MAX TEMP:  25;

$$
MIZ001>003-009>011-084-270700-
WESTERN UPPER MICHIGAN

CITY           SKY/WX    TMP DP  RH WIND       PRES   REMARKS
IRON MOUNTAIN  PTCLDY    10   5  80 CALM      29.95R
6HR MIN TEMP:   9; 6HR MAX TEMP:  27;

HOUGHTON       CLEAR     18   5  57 NW10      29.91R WCI   6
6HR MIN TEMP:  18; 6HR MAX TEMP:  21; 6HR PCP: TRACE;

COPPER HARBOR    N/A     23  11  60 N21       29.93R WCI   8
6HR MIN TEMP:  22; 6HR MAX TEMP:  24;

IRONWOOD       CLEAR      0  -4  83 CALM      29.94R
6HR MIN TEMP:   0; 6HR MAX TEMP:  19;

$$

ABBREVIATIONS USED IN REMARKS
   TC - TEMPERATURE IN CELSIUS
  WCI - WIND CHILL INDEX
   HX - HEAT INDEX
  VSB - VISIBILITY





USA.gov is the U.S. government's official web portal to all federal, state and local government web resources and services.